Theta_e
317 317 318 319 319 316 315 315 316 317 319 321 321 322 321 321 321 322 322 322 322 322 322 321 319 317 317 316 316 317 317 317 316 316 316 316 315 313 312 312 312 312 313 313 314 316 317 317 317 316 317 318 319 321 320 321 319 322 332 329 328 331 322 319 319 318 318 317 315 314 314 315 315 315 313 312 311 310 309 309 308 307 307 306 305 305 305 305
317 317 318 319 319 318 316 315 316 318 320 321 322 321 321 321 322 322 322 322 322 322 322 321 319 317 316 317 316 317 317 317 316 316 316 314 313 312 313 312 312 312 312 313 314 315 316 316 316 317 318 318 320 322 320 321 319 323 329 324 329 331 319 317 316 314 316 315 314 314 314 315 315 314 314 312 310 309 308 307 307 306 305 305 305 304 304 304
318 317 318 319 320 319 317 316 316 318 320 322 322 322 322 322 322 322 322 322 321 322 322 321 320 317 317 316 316 317 318 319 317 316 316 313 313 312 312 312 312 312 313 314 314 316 316 317 317 317 318 318 320 321 320 321 320 320 322 324 332 327 316 316 314 314 315 314 315 314 314 314 314 314 314 311 309 308 307 307 306 305 304 304 304 304 304 303
318 318 318 319 320 320 319 316 316 318 321 322 322 322 322 322 322 322 322 322 321 321 321 321 320 317 317 316 317 317 317 321 319 315 316 313 313 313 312 312 312 313 313 313 314 315 316 317 318 317 318 319 320 320 320 321 320 318 319 326 329 319 317 317 314 315 315 314 315 313 314 313 313 315 312 311 312 309 307 307 306 304 304 303 303 303 303 303
317 318 318 319 320 321 320 318 316 318 320 322 323 323 322 322 322 322 322 322 322 321 321 321 320 318 317 316 317 316 317 324 321 315 316 314 313 313 312 312 312 313 313 314 314 314 316 316 316 317 317 318 319 319 320 319 317 317 318 321 319 314 317 316 314 315 314 314 314 313 314 313 313 313 312 312 313 309 306 306 306 304 304 303 303 302 302 302
316 317 318 319 320 321 321 320 318 317 319 321 322 323 322 323 322 322 322 322 322 321 321 321 320 317 317 317 317 317 320 324 319 315 316 314 313 313 312 312 312 313 313 313 313 314 315 314 314 317 316 316 318 318 319 318 316 317 318 316 315 315 316 315 314 314 314 314 313 312 313 313 312 311 311 311 309 307 306 306 305 304 304 303 303 303 302 301
314 315 316 317 319 321 321 321 319 318 318 320 321 322 322 322 322 321 321 321 321 321 321 320 320 318 317 319 320 320 320 319 316 315 316 314 314 313 312 312 312 313 313 313 312 313 314 313 314 315 315 317 317 316 317 317 316 317 320 316 315 316 315 315 314 313 313 313 312 312 312 313 312 311 310 308 307 306 306 305 304 304 303 303 304 302 301 300
314 314 314 316 317 320 321 321 321 319 318 319 320 320 321 321 321 320 320 320 320 321 320 320 320 318 317 320 321 322 320 317 315 315 315 314 314 314 313 313 312 313 313 313 312 312 313 313 314 315 316 317 316 316 316 315 316 319 320 316 315 316 315 315 314 314 314 312 311 312 312 312 312 311 308 306 306 306 305 305 304 304 303 303 303 302 301 300
314 314 314 314 316 318 320 321 321 320 319 318 318 318 319 320 319 319 319 319 319 320 320 319 320 318 317 317 318 321 321 318 316 315 315 314 314 314 314 313 312 312 312 312 312 312 312 312 313 314 315 316 316 317 315 315 316 317 317 315 314 315 315 315 314 314 313 311 310 312 312 310 311 311 308 306 306 305 305 304 304 303 303 302 302 301 300 300
313 314 314 314 315 316 318 320 320 320 319 319 318 318 318 318 318 318 318 318 318 319 319 319 320 318 317 316 317 321 321 318 316 315 315 315 314 314 314 314 312 312 312 313 312 312 312 312 312 313 315 316 315 316 315 315 316 316 315 314 313 314 314 315 314 313 313 311 311 312 313 310 311 313 310 306 305 305 305 304 303 303 302 301 301 299 299 299
313 313 314 314 315 316 317 319 320 320 320 319 319 318 318 318 317 317 316 316 316 319 319 318 320 318 317 318 319 321 319 316 315 315 315 315 315 315 314 314 313 312 312 312 312 312 311 311 311 312 316 317 314 315 314 314 316 315 314 313 313 313 313 314 314 313 312 312 311 312 312 310 311 313 310 306 305 305 304 303 303 302 302 301 300 299 299 298
312 313 313 314 315 316 317 317 319 319 319 319 319 318 317 317 316 315 315 314 315 318 318 318 320 318 318 319 319 319 317 315 315 314 315 315 315 315 314 314 313 312 312 312 312 312 311 311 311 312 315 315 315 315 314 315 314 313 313 314 315 313 313 314 313 313 312 312 312 311 312 312 312 312 308 305 305 305 304 303 302 302 301 301 300 299 298 298
312 312 313 313 314 315 316 317 318 319 319 319 318 318 317 316 316 315 315 314 315 318 317 318 319 318 317 319 318 317 316 315 315 314 315 315 315 315 314 314 313 312 313 311 312 312 311 312 311 311 313 314 315 314 314 314 313 314 312 313 316 315 316 315 312 313 312 312 312 311 313 315 312 309 306 306 305 305 304 302 302 301 301 300 300 299 298 297
311 312 312 313 313 314 316 317 318 318 318 318 318 318 317 317 316 316 315 314 315 317 316 318 319 317 318 319 318 316 315 314 314 315 315 315 316 315 314 315 314 313 313 312 312 312 312 313 312 311 312 313 314 313 315 314 313 315 312 315 318 317 322 318 311 313 312 312 313 311 313 314 310 307 306 306 305 305 303 302 302 301 300 300 299 299 298 297
310 311 312 312 313 314 314 316 317 318 318 318 318 318 317 317 317 316 315 314 316 316 316 318 318 318 318 319 317 315 315 315 314 315 315 315 316 314 315 315 314 314 314 313 313 313 313 314 312 312 313 314 314 314 317 317 316 316 313 321 323 318 323 319 310 312 312 313 312 311 314 313 308 306 306 305 305 305 303 302 302 301 300 300 299 298 298 297
310 310 311 311 312 313 313 315 316 317 317 317 317 317 317 317 316 316 315 315 316 315 317 320 319 319 319 318 318 317 316 315 315 316 315 316 315 314 315 315 315 315 315 314 314 314 314 314 314 314 314 313 313 315 320 324 327 323 316 321 323 317 318 317 312 312 311 313 312 311 313 313 309 307 306 305 305 304 302 302 301 300 300 299 299 298 297 297
310 310 310 311 312 312 313 313 315 316 316 316 316 316 315 316 316 315 316 316 316 316 318 320 319 319 319 318 318 318 317 317 317 316 316 316 314 314 315 315 316 315 315 316 315 315 315 314 313 314 314 312 315 320 322 324 329 329 323 320 319 316 314 314 314 311 311 312 313 311 311 312 311 307 305 305 304 303 302 301 301 300 299 299 298 298 297 297
310 310 310 310 311 312 312 313 314 315 315 315 315 315 314 315 315 315 317 317 316 319 322 320 317 318 319 319 318 318 318 318 317 316 316 315 314 315 315 315 316 316 317 316 315 316 315 313 314 319 321 315 316 323 319 318 323 325 323 320 318 317 313 312 313 311 313 313 312 313 312 312 310 306 305 304 304 303 302 301 301 300 299 298 298 297 297 297
309 310 310 310 310 311 312 313 314 315 315 315 314 314 314 314 314 315 318 316 314 319 321 318 316 316 318 318 318 318 317 316 316 315 316 315 314 314 315 316 316 316 316 317 319 316 313 316 319 325 327 316 312 318 316 317 321 318 317 316 316 315 313 311 311 311 313 312 312 313 312 312 309 306 305 304 303 303 301 301 300 299 299 298 298 297 297 297
309 309 309 309 310 310 311 312 313 314 314 314 314 314 314 314 315 317 316 314 314 316 316 315 315 316 317 318 318 318 316 316 316 316 315 314 314 314 315 315 315 318 318 318 320 315 315 321 324 326 325 314 309 313 314 316 315 312 313 314 314 314 312 311 311 312 311 311 314 313 311 311 309 307 305 303 303 302 300 300 299 299 298 298 298 297 297 297
309 309 309 310 310 310 311 311 312 314 314 315 316 316 314 312 314 316 313 313 314 314 313 315 316 317 318 318 318 317 315 315 315 315 315 313 314 315 315 315 316 321 319 315 317 317 319 322 325 328 319 310 310 312 312 313 311 311 313 313 314 314 312 310 311 312 309 310 314 313 311 311 309 308 305 302 302 301 300 299 299 299 298 298 298 297 297 296
308 309 310 309 309 310 310 311 312 313 314 316 317 316 313 311 312 312 312 313 314 314 315 316 317 318 317 316 317 316 314 315 315 315 314 313 315 315 314 315 316 319 318 316 320 321 321 322 323 320 311 308 311 311 312 312 312 313 313 313 314 314 313 313 313 311 308 309 314 312 310 309 309 309 305 301 302 301 300 300 299 299 298 298 298 297 296 296
308 309 309 309 310 309 310 311 311 312 314 316 318 316 313 312 311 311 313 315 316 316 317 318 317 316 316 315 316 315 313 315 315 315 313 312 315 314 313 315 316 318 317 318 319 318 321 325 319 311 309 310 311 312 313 312 312 314 314 313 315 314 315 316 314 312 310 309 311 311 308 307 308 309 306 302 301 301 300 300 299 299 298 298 297 297 296 296
308 308 309 310 309 309 310 311 311 313 315 317 318 316 313 312 311 312 314 315 317 316 317 318 317 317 317 315 314 314 313 314 314 313 313 313 314 313 312 313 315 317 316 314 315 315 318 318 311 309 312 312 312 314 315 313 315 318 317 314 315 315 315 316 314 312 311 312 312 309 308 309 309 308 306 302 300 300 300 299 299 298 298 298 297 296 295 295
308 308 310 309 309 310 310 311 312 314 316 318 317 315 314 312 311 313 314 314 319 320 318 317 316 318 317 315 314 313 313 314 313 313 313 313 314 313 312 312 315 318 317 313 312 314 314 311 309 313 316 315 315 318 318 316 315 318 320 317 315 314 313 315 315 312 311 313 313 309 309 312 310 307 305 301 300 300 299 298 298 298 298 297 297 296 295 295
309 309 310 309 309 310 310 313 314 314 316 317 316 315 314 312 312 314 315 318 322 322 320 317 316 317 316 315 314 313 315 315 313 313 312 312 313 313 314 314 314 316 314 311 313 315 312 309 311 316 318 316 316 318 320 317 313 315 317 315 313 311 311 313 313 311 312 313 311 310 310 309 309 308 304 300 300 300 298 297 297 298 298 297 296 295 295 294
309 309 309 309 309 309 311 315 313 314 316 316 317 316 313 312 313 314 317 322 322 321 321 319 317 318 315 315 315 315 319 317 313 313 311 312 313 312 316 316 314 314 309 311 321 320 312 310 313 315 316 316 314 315 318 317 315 317 314 310 310 310 310 312 311 310 311 310 309 309 309 307 307 308 304 300 300 300 298 298 297 297 298 297 296 295 295 294
309 309 309 309 309 309 311 314 314 316 317 317 318 316 314 313 312 315 319 318 317 321 322 318 316 316 315 314 314 315 316 315 315 314 310 311 312 311 313 313 314 314 309 312 324 319 311 313 316 316 315 315 316 316 316 316 315 316 312 308 308 309 310 311 310 310 308 307 307 308 309 308 309 309 304 301 301 300 299 298 297 296 297 296 295 295 294 294
309 309 309 308 309 310 311 313 316 316 316 317 318 316 314 311 311 320 321 314 315 321 319 316 316 315 314 314 314 314 313 314 315 314 310 310 312 311 311 310 309 310 309 311 318 315 310 311 313 315 315 315 317 317 315 315 313 311 310 309 310 311 310 309 308 308 307 307 308 308 308 308 310 310 305 302 302 302 300 298 297 296 296 295 295 295 294 294
309 309 308 308 310 312 314 315 316 316 316 316 318 316 311 311 317 323 320 313 318 320 314 314 317 315 314 315 315 313 312 313 313 312 311 310 310 310 309 309 307 308 312 311 313 312 309 307 307 309 311 311 313 310 309 311 310 307 308 310 312 312 310 308 308 307 307 310 310 309 309 307 308 309 305 303 304 304 300 297 297 296 295 295 295 294 294 293
309 309 308 309 311 312 314 316 316 316 317 317 317 314 310 315 322 322 316 312 316 318 315 315 317 316 317 318 318 315 313 314 312 311 313 311 310 310 309 312 314 317 319 317 318 316 310 309 309 307 307 308 309 308 308 309 307 307 310 310 311 315 313 310 310 309 309 314 311 306 307 306 307 308 306 304 305 304 301 298 297 295 294 295 294 294 294 293
309 308 309 311 312 312 313 314 314 314 314 317 314 311 314 317 318 321 322 318 315 317 319 318 317 319 321 320 322 320 316 317 314 312 317 314 312 314 315 317 320 322 321 320 322 319 315 315 310 307 307 307 309 310 311 310 308 310 312 309 309 316 317 314 314 311 310 314 309 303 305 305 304 307 307 307 305 302 300 298 296 294 294 294 294 294 294 293
309 308 310 312 312 314 314 313 315 314 314 316 311 312 320 318 317 322 324 321 316 317 320 320 320 322 321 319 325 323 316 319 318 313 315 313 313 320 321 317 318 320 319 317 317 317 320 318 310 308 309 308 309 312 314 314 310 310 311 311 312 314 315 315 316 314 314 315 308 302 303 305 305 305 306 306 302 298 297 297 295 294 294 295 294 294 294 293
309 309 311 313 313 314 316 316 317 316 316 314 309 314 320 318 322 323 321 321 319 317 320 321 320 320 319 319 324 322 317 321 320 313 314 314 314 321 321 315 314 317 316 315 315 314 318 321 317 313 312 309 309 312 317 318 312 309 311 312 313 313 314 316 316 315 315 314 309 303 304 308 308 304 300 299 296 295 295 295 295 295 295 294 294 293 293 293
309 310 311 314 314 314 316 318 317 318 319 312 307 315 318 317 322 321 321 324 321 318 319 319 319 320 320 322 324 320 315 319 318 312 314 316 316 321 323 319 315 314 315 317 317 313 314 321 316 308 307 309 310 308 309 312 312 310 307 308 310 311 313 312 311 311 309 308 306 304 306 308 305 299 296 295 294 294 294 294 294 295 294 294 294 293 293 293
310 311 311 313 315 315 315 318 318 318 319 310 305 312 314 317 324 323 321 321 320 322 319 317 319 320 321 323 323 318 314 315 317 314 315 315 315 318 321 322 317 311 313 319 320 315 315 319 312 304 304 306 306 304 303 308 313 308 304 308 310 308 307 307 308 308 306 306 306 305 307 307 303 299 295 295 295 294 294 294 293 294 294 294 293 293 293 293
311 311 311 311 314 317 317 318 318 318 316 308 306 312 311 313 321 322 319 316 318 322 320 318 319 320 323 322 321 320 315 314 315 315 318 317 314 316 316 315 313 310 311 314 317 317 316 317 311 307 309 304 300 301 301 302 306 307 307 310 309 306 305 306 307 306 305 306 307 306 305 305 305 303 296 294 296 295 294 294 293 293 294 293 293 293 293 293
312 313 312 310 311 317 319 318 318 315 310 305 307 313 313 311 313 315 316 315 316 318 319 319 318 318 322 321 321 321 316 315 316 315 319 319 315 316 316 314 311 308 308 308 312 315 314 316 311 306 307 304 300 304 305 301 301 304 306 306 306 307 306 305 306 307 307 307 308 308 305 304 304 303 297 295 296 295 294 294 294 293 293 293 293 293 293 293
313 313 313 310 308 313 318 319 319 313 308 308 309 313 314 312 311 312 315 316 316 317 319 321 317 316 320 320 322 321 315 316 317 314 316 317 315 314 313 313 311 305 304 307 311 313 311 316 315 304 302 304 302 305 310 306 300 300 301 302 302 305 305 304 304 305 307 308 308 309 307 306 305 303 300 296 295 295 294 294 295 294 293 293 293 293 293 293
312 312 313 310 306 309 314 318 317 309 307 311 312 312 313 312 311 311 313 315 315 316 319 321 318 316 318 319 321 320 315 317 318 315 315 316 316 315 311 312 313 307 303 304 308 310 309 314 315 306 302 304 305 305 308 309 304 301 301 302 301 301 303 305 303 302 304 306 306 306 306 307 305 302 301 298 296 295 295 295 296 294 293 294 293 293 293 292
311 311 312 310 307 308 312 315 313 308 309 314 314 313 313 313 313 312 312 313 314 315 317 320 319 317 316 316 318 319 317 317 316 315 316 316 315 316 313 310 310 307 304 305 308 310 311 312 312 308 305 306 308 306 305 307 307 304 302 303 302 301 303 305 303 302 302 303 305 305 305 307 304 300 299 298 297 295 295 296 295 293 293 293 293 293 292 292
311 311 310 309 308 309 311 313 311 310 313 315 314 315 314 313 314 314 313 313 313 313 314 317 318 317 316 316 317 319 319 320 318 315 317 317 314 316 314 308 306 306 307 309 309 307 308 309 309 308 308 308 307 304 302 303 303 303 303 303 303 302 302 304 305 305 302 300 301 301 302 304 301 298 298 297 296 295 294 295 294 293 293 293 293 292 292 292
312 310 309 308 309 311 312 312 312 312 313 314 314 315 314 314 315 315 314 314 313 314 313 314 315 314 315 315 315 318 318 320 320 317 317 318 315 312 310 306 306 306 306 309 307 304 305 308 309 308 310 310 304 299 298 299 299 300 301 301 302 301 302 303 304 305 304 301 300 300 301 301 300 299 298 296 294 294 295 295 294 293 293 293 292 292 292 292
312 310 309 308 309 311 312 312 313 313 313 313 314 314 314 314 315 315 315 314 314 315 314 313 313 312 315 315 313 316 317 317 318 317 317 319 315 307 304 305 306 306 307 309 308 306 308 310 310 309 311 312 307 301 300 300 298 298 299 300 300 300 301 301 301 301 302 301 300 300 301 302 300 299 298 296 295 296 294 294 294 293 293 293 292 292 292 291
311 310 310 309 309 310 311 311 312 313 313 313 314 314 314 314 314 315 315 314 312 312 313 314 313 311 313 315 313 314 315 314 316 315 315 317 312 303 301 304 304 304 304 305 305 306 310 311 310 311 313 314 312 310 309 305 299 297 298 299 299 299 299 300 300 300 300 300 300 300 301 301 299 298 299 298 298 298 295 293 293 293 293 292 292 292 291 291
310 310 310 309 308 309 310 311 311 311 313 313 313 314 313 314 314 314 315 314 312 311 312 314 313 311 313 314 313 314 314 312 314 314 313 316 312 302 299 301 301 301 302 302 303 306 310 309 307 310 312 313 313 312 309 304 301 301 300 298 298 299 299 299 300 300 300 300 300 300 300 301 300 299 298 297 297 298 296 293 292 293 292 292 292 291 291 291
309 309 310 310 309 308 308 309 309 310 312 312 313 313 313 313 313 313 314 314 313 312 312 312 313 313 314 313 313 314 313 312 313 312 313 316 311 301 297 298 299 299 300 300 301 305 309 307 305 307 309 309 311 311 306 303 303 304 303 300 298 298 300 300 300 299 300 301 301 302 301 301 301 300 299 298 297 298 297 293 292 293 292 292 291 291 291 291
309 309 309 309 309 309 309 309 309 309 310 311 311 312 313 314 313 313 314 314 313 313 313 314 314 313 314 314 313 314 313 312 313 312 312 314 311 304 300 299 297 298 299 299 300 303 307 308 306 306 306 306 307 307 306 305 303 303 303 301 299 298 299 300 299 299 300 300 301 302 302 301 301 300 299 298 297 297 296 294 293 293 292 292 292 292 291 291
310 309 309 308 308 308 309 309 309 309 309 310 311 311 311 312 313 313 314 315 314 313 313 315 315 314 314 313 313 314 314 313 314 313 312 312 312 309 307 305 300 296 297 300 299 300 304 306 305 306 306 305 305 305 305 304 303 303 303 301 299 298 298 298 298 298 298 299 299 300 300 300 300 299 299 298 297 296 295 294 294 293 292 292 292 291 291 290
310 309 309 308 307 306 308 309 309 309 309 309 310 310 310 311 312 312 314 315 315 314 313 314 315 314 314 313 313 313 314 314 315 315 312 312 312 310 310 310 305 297 296 299 300 300 302 305 305 305 305 305 305 304 304 302 302 302 302 301 300 299 298 298 297 297 297 298 297 298 298 298 298 298 298 297 297 296 294 293 293 292 292 292 291 291 290 290
310 309 309 309 308 306 307 308 308 309 310 309 309 310 310 311 311 311 313 314 314 315 313 313 314 314 313 313 313 313 312 313 314 313 312 312 312 311 310 309 305 301 298 298 300 302 302 303 304 303 305 307 304 302 301 300 299 299 300 300 299 299 299 298 298 298 297 297 297 297 298 298 298 298 298 296 296 295 293 292 292 292 292 291 291 291 290 290
311 309 309 309 309 308 308 308 308 309 310 309 309 309 310 311 310 311 313 313 313 314 313 313 314 314 313 313 313 313 311 311 312 311 310 310 309 308 308 305 304 303 299 297 299 301 301 303 304 303 305 306 301 299 298 298 300 302 303 301 299 298 299 298 298 298 298 297 298 298 298 298 298 299 298 298 298 296 293 291 292 291 291 291 291 290 290 290
Wind_Speed
12 13 13 14 15 16 16 16 17 18 20 21 22 22 23 23 24 25 26 29 29 28 23 19 16 10 6 4 6 7 8 10 10 8 10 13 13 12 12 12 12 11 10 9 6 4 3 3 3 3 6 7 4 3 4 5 6 3 2 3 1 1 1 2 2 2 4 3 1 4 7 8 3 3 11 16 22 27 27 27 24 21 20 18 14 9 7 7
12 12 13 13 14 15 15 15 16 17 18 19 20 21 21 22 23 24 25 27 29 29 25 19 16 12 6 3 5 6 7 9 11 11 12 12 11 12 12 12 12 12 11 10 8 8 8 7 6 4 7 7 5 3 2 4 6 3 2 2 3 4 2 2 5 4 5 5 2 4 6 8 3 2 8 9 14 22 20 18 21 22 19 14 11 9 8 8
11 12 12 13 13 14 14 14 15 16 17 18 19 19 20 21 22 23 24 27 28 29 27 21 15 13 8 2 2 4 4 7 10 12 11 10 11 12 12 12 13 14 13 12 11 11 11 10 10 9 10 8 4 4 1 2 4 2 3 2 5 4 1 5 11 10 8 7 4 4 5 7 2 2 8 10 11 13 12 11 15 19 18 14 11 9 9 10
11 12 12 13 13 13 13 13 14 14 15 16 17 18 19 20 20 22 24 26 28 28 28 22 15 12 8 3 1 2 1 3 7 10 9 8 9 11 11 12 13 14 14 14 13 12 11 10 12 11 10 7 3 3 1 0 2 2 2 2 6 2 2 5 11 10 9 8 5 3 5 7 4 4 11 15 10 5 7 13 15 19 19 15 12 11 11 12
11 11 12 12 13 13 12 12 13 13 14 15 15 16 17 19 20 21 23 25 27 27 28 24 15 11 8 3 1 1 2 2 4 7 6 6 8 9 11 12 13 13 13 14 14 12 11 11 12 9 6 5 3 1 0 1 1 3 1 3 2 3 1 3 8 9 8 7 5 5 5 3 5 8 10 12 7 4 11 17 18 19 17 14 13 12 13 14
11 11 12 12 13 13 12 12 12 12 13 13 14 15 16 17 19 20 22 24 25 25 27 25 16 10 8 4 3 1 3 1 1 4 4 4 6 8 10 10 11 11 11 13 13 11 11 12 11 9 7 5 3 1 1 1 2 2 3 1 1 2 2 4 8 8 6 6 4 3 2 2 11 10 9 13 12 14 17 17 17 16 14 12 10 10 12 14
12 12 12 12 12 12 13 12 12 12 12 13 13 14 15 16 18 19 21 23 24 24 25 24 16 9 6 5 5 3 3 3 1 2 3 4 5 6 8 8 10 9 10 12 13 12 11 13 12 10 7 3 4 2 1 1 0 2 3 3 1 3 6 6 6 6 5 5 4 2 3 4 14 9 9 18 19 21 19 15 15 15 13 9 8 9 11 13
12 12 12 12 12 12 13 12 12 12 12 13 13 14 14 15 17 18 20 22 23 23 24 24 15 7 5 4 5 3 2 2 2 2 3 3 4 6 6 7 9 9 11 12 13 12 10 11 11 10 4 1 4 5 4 4 1 3 2 3 2 4 7 7 4 3 2 3 5 4 1 5 15 14 12 18 21 21 18 16 16 14 12 9 9 10 10 12
13 13 13 13 13 13 12 13 13 12 12 13 14 14 14 15 16 18 20 21 22 22 23 24 15 6 4 5 6 5 3 4 3 2 2 3 4 6 7 7 9 10 11 11 10 11 10 9 8 7 3 2 5 6 5 5 2 1 1 3 3 5 6 6 3 1 2 1 6 6 4 7 23 18 9 16 22 20 18 17 15 13 12 11 10 10 10 12
14 13 14 14 13 14 13 13 13 13 13 13 14 15 15 16 16 17 19 20 21 20 21 23 14 5 3 4 5 3 3 4 3 1 2 3 4 6 7 8 9 10 11 11 9 10 11 10 8 5 3 3 5 7 5 1 2 2 3 6 7 10 9 6 5 3 5 3 5 4 2 9 25 14 3 16 22 19 18 17 14 13 13 12 11 10 11 11
14 14 15 14 14 15 14 14 14 13 13 13 14 15 16 17 17 18 18 19 19 18 19 20 14 4 2 3 3 2 3 3 2 1 1 3 5 6 7 9 9 9 10 10 9 8 9 9 8 5 2 3 5 7 5 1 3 4 5 8 10 12 11 8 6 5 6 3 3 2 0 8 15 5 9 24 23 20 19 18 16 14 14 13 10 11 12 11
14 15 15 15 16 15 15 16 15 15 15 14 14 14 17 17 17 18 18 18 17 16 17 17 11 3 2 4 4 4 4 3 3 1 1 2 6 8 9 10 9 8 9 10 8 7 6 8 8 4 4 4 5 4 2 4 5 4 3 4 8 7 5 8 7 6 5 3 2 4 4 5 8 4 18 30 26 21 20 20 18 16 15 12 10 10 11 12
15 15 15 16 16 16 16 16 16 17 16 16 16 15 17 18 19 19 18 18 16 15 17 15 8 2 3 4 4 5 5 4 4 2 1 3 6 8 9 9 8 7 9 10 8 6 5 7 9 5 6 5 2 2 5 8 5 3 1 2 2 6 4 8 7 6 5 4 2 3 3 5 5 10 25 30 27 25 22 22 19 17 15 12 10 9 9 11
15 15 16 16 16 17 17 17 18 18 18 19 18 17 18 19 20 19 18 17 14 13 16 12 4 1 3 3 4 6 6 6 5 3 3 4 5 7 9 9 7 8 10 10 7 5 5 8 9 6 6 5 4 5 7 6 1 0 0 1 2 2 4 7 7 6 4 5 3 3 3 7 3 14 28 30 28 27 24 22 20 17 15 13 11 9 7 10
16 16 16 16 17 17 17 18 19 19 20 20 20 20 19 19 21 19 18 16 12 12 15 9 2 1 3 3 4 7 7 7 6 5 5 5 5 6 10 10 8 9 11 9 5 4 6 9 9 5 4 4 4 4 5 4 2 2 1 3 2 3 4 7 6 8 6 5 5 4 3 5 3 13 26 29 28 26 24 22 20 18 16 14 11 8 7 10
16 17 17 17 17 17 18 18 19 20 21 20 22 21 19 21 21 18 17 12 9 13 14 6 3 3 4 3 4 6 7 8 7 8 8 6 5 6 10 9 8 9 10 7 3 5 8 8 7 4 3 2 0 3 4 4 4 3 1 3 3 1 3 3 4 7 8 3 4 6 4 3 3 12 22 25 26 25 24 22 21 19 16 13 10 8 7 9
17 17 17 18 18 18 18 18 19 21 21 22 24 22 22 22 18 17 14 6 9 16 10 3 4 7 6 5 6 7 7 7 7 8 8 7 6 8 10 8 8 10 9 5 2 6 9 5 3 3 2 1 1 4 4 4 4 4 2 1 4 3 2 2 4 5 6 3 4 5 5 6 3 13 21 22 25 25 23 22 21 19 15 12 10 8 7 7
18 18 18 18 18 18 18 18 19 21 21 23 23 24 24 18 16 16 7 4 13 15 4 2 4 6 5 5 5 6 7 6 7 7 7 6 6 8 8 7 8 8 7 4 2 6 7 3 0 1 3 4 3 5 2 2 3 3 2 2 4 4 4 4 3 3 5 4 6 5 6 7 3 11 18 21 24 23 22 22 21 18 15 12 9 8 7 7
19 18 18 18 18 18 18 18 19 20 22 22 22 24 20 16 17 9 2 8 14 6 2 5 6 4 6 8 7 7 7 6 6 6 6 5 6 8 6 6 8 6 5 4 5 6 3 2 2 3 3 2 2 4 3 6 6 5 5 4 4 5 6 6 5 5 6 4 6 7 7 6 5 9 12 18 22 21 20 20 20 18 16 12 9 7 6 6
19 18 18 18 18 18 18 18 18 19 22 22 23 23 16 15 13 3 8 16 8 3 8 13 13 12 13 13 10 8 7 6 6 4 4 4 5 6 4 6 6 5 5 4 6 5 2 3 2 2 4 3 2 3 5 5 4 4 3 3 5 6 6 7 6 5 4 3 6 7 7 7 7 9 12 18 20 18 19 20 20 19 16 13 10 8 6 4
19 18 18 18 18 18 17 17 17 17 19 20 22 19 12 12 7 4 15 15 6 12 16 15 14 14 14 12 9 6 5 5 4 3 2 3 4 3 3 5 4 3 5 6 4 2 3 3 4 6 7 6 4 5 4 3 3 3 3 4 6 5 7 8 6 3 2 1 6 5 6 8 7 8 12 16 15 16 21 21 21 20 17 13 10 9 6 5
19 18 17 17 17 17 17 17 16 16 17 16 17 14 11 11 7 8 12 10 14 17 13 11 11 11 10 10 9 6 4 3 3 3 2 2 3 3 2 4 4 2 6 5 3 3 4 4 7 7 6 3 3 4 3 4 3 3 3 2 5 4 5 8 5 2 2 0 4 5 7 8 8 8 10 17 17 17 24 25 23 22 19 14 12 11 7 5
19 18 17 17 17 16 16 15 15 14 14 12 12 11 10 11 10 12 11 9 14 13 7 6 6 7 5 4 7 6 3 2 2 4 3 1 2 3 2 3 2 2 3 4 3 2 4 5 7 6 6 2 3 2 2 3 3 4 4 2 5 4 2 5 4 2 2 2 4 6 9 8 8 7 7 16 19 17 21 23 22 21 18 15 14 12 8 6
19 18 17 17 16 16 14 14 14 13 11 9 9 9 9 11 11 13 11 6 8 8 4 3 4 5 4 3 5 4 3 2 3 4 4 1 2 2 2 2 3 1 1 1 5 3 7 7 4 4 4 3 1 2 1 3 3 5 6 5 6 4 4 6 3 5 5 4 4 7 9 7 7 9 5 8 11 13 18 20 20 20 17 15 15 13 8 5
19 17 17 16 16 15 13 13 12 10 8 7 7 7 8 10 11 12 9 3 4 6 2 4 4 5 6 5 4 4 2 4 5 4 3 1 1 2 0 1 2 1 2 0 1 3 7 5 3 4 2 3 2 3 3 6 3 5 5 7 6 4 4 5 4 5 5 5 4 1 4 7 4 8 7 5 6 10 14 16 18 20 18 17 18 14 7 4
18 17 16 16 15 14 12 11 9 8 7 6 6 6 8 9 10 11 6 3 3 4 3 3 3 5 7 5 5 3 1 3 4 5 4 1 2 1 2 1 2 1 2 0 2 3 3 1 4 4 3 2 1 4 4 5 3 4 5 4 4 3 2 5 3 3 2 4 3 3 1 7 2 5 8 8 8 10 10 10 15 21 21 20 19 13 6 3
18 17 16 16 15 13 12 10 10 8 6 5 5 5 7 7 8 9 5 3 4 3 4 3 4 4 5 5 6 5 0 1 2 3 5 4 2 3 1 2 1 1 1 2 2 2 2 1 4 4 4 1 3 5 5 6 5 4 4 4 3 0 4 5 3 3 4 2 4 2 3 7 7 5 9 12 11 10 9 9 12 19 23 22 18 11 6 3
18 17 16 16 15 13 12 11 11 8 6 6 5 4 5 6 7 6 4 2 3 3 3 3 4 4 5 4 6 6 2 1 1 2 6 4 3 3 0 2 3 3 1 4 2 5 2 1 2 4 2 2 5 5 5 7 3 5 5 3 2 4 6 5 4 6 3 3 6 7 5 5 9 4 6 10 10 11 13 13 11 17 22 21 18 11 6 3
18 17 17 16 15 13 12 11 10 8 7 6 4 4 4 5 5 4 4 0 1 2 1 2 3 4 5 3 5 7 4 2 2 3 5 1 3 1 1 1 4 3 3 4 6 7 2 2 4 7 4 5 6 5 6 7 3 4 3 2 3 4 5 4 4 5 2 1 9 7 7 5 7 2 5 6 8 12 13 11 11 17 23 21 17 11 6 3
19 18 17 16 14 13 12 11 10 9 8 6 4 5 4 3 1 5 1 3 1 1 2 3 2 3 4 2 2 4 4 4 4 3 3 2 1 1 1 2 1 1 3 2 4 6 2 2 2 4 4 5 5 3 3 4 3 0 2 3 4 4 3 1 2 0 3 4 9 7 10 8 6 2 7 6 7 10 11 9 10 16 21 21 16 11 7 3
20 19 18 16 15 14 12 10 10 9 8 6 5 5 3 2 3 4 3 3 1 0 2 2 2 2 4 2 1 2 1 2 4 4 1 1 0 2 2 1 2 3 3 4 3 5 3 1 2 2 4 4 5 1 1 1 1 3 3 3 4 5 2 4 3 3 1 6 6 5 8 9 7 5 6 7 6 7 11 13 14 14 18 21 14 10 7 2
21 20 19 17 16 15 13 11 10 9 8 6 5 5 2 1 1 3 4 2 2 2 2 2 2 2 3 2 0 3 1 2 2 4 2 1 1 1 1 3 1 3 4 2 2 6 3 5 3 1 3 5 6 1 3 4 4 4 3 4 3 4 4 3 2 1 3 7 4 1 2 5 10 7 6 10 8 7 12 16 19 18 20 20 14 10 7 2
22 21 19 19 17 15 15 13 12 10 8 7 6 4 5 3 3 6 4 2 2 2 2 2 2 3 4 2 2 2 1 3 3 2 2 2 1 3 3 4 5 2 4 2 2 4 4 5 2 1 2 6 8 3 2 2 2 4 3 3 2 1 4 5 4 3 5 6 3 1 2 3 7 5 5 10 7 7 14 20 24 24 22 18 14 10 6 2
22 21 20 20 18 17 16 14 14 11 8 9 7 4 5 3 5 5 5 6 3 0 2 2 3 2 2 1 4 3 1 4 3 3 1 2 1 2 4 4 4 4 2 1 2 2 2 6 3 4 2 6 8 5 5 4 4 5 4 5 4 3 2 5 4 4 7 5 4 2 1 4 3 4 5 4 7 11 18 23 24 23 19 16 14 11 6 4
21 20 21 20 19 18 16 15 15 12 11 10 6 4 4 5 4 3 5 5 2 1 1 1 5 3 2 2 3 3 2 3 0 4 0 2 3 4 3 4 5 5 4 1 2 3 3 6 5 1 1 6 5 3 5 5 2 3 2 4 2 4 5 4 3 3 3 6 5 3 3 5 3 2 4 5 9 13 17 21 22 20 18 17 14 11 7 3
19 18 21 21 20 19 17 17 16 14 14 11 5 4 7 5 4 4 4 3 3 4 2 2 3 3 3 3 3 2 2 2 0 2 2 3 3 5 5 4 6 7 6 4 2 2 2 5 2 2 1 3 3 2 2 2 1 1 2 3 5 4 4 1 3 0 3 4 7 3 4 5 0 1 1 5 6 8 10 13 17 19 18 17 14 10 6 2
17 17 21 22 20 18 17 18 16 15 16 12 5 7 6 4 7 6 3 3 3 5 5 0 2 4 4 2 3 4 2 1 1 1 2 3 3 5 5 4 5 9 10 5 2 3 2 4 3 3 2 4 2 1 2 1 3 4 4 4 3 1 2 2 1 2 2 4 6 2 7 8 2 2 3 4 6 7 7 7 12 15 17 16 12 8 3 4
15 17 22 24 23 20 18 18 16 17 15 9 6 9 5 5 11 10 5 4 3 3 4 4 4 4 5 4 4 4 4 2 2 2 2 3 4 5 6 4 3 6 9 7 2 2 1 3 5 2 2 3 1 2 3 2 2 4 3 2 1 0 2 2 2 2 2 6 7 3 6 8 5 5 5 8 11 11 9 8 9 11 14 15 11 7 2 4
16 15 18 24 24 22 20 17 16 16 12 6 7 8 5 7 13 16 11 6 4 4 3 6 6 3 4 6 4 3 5 5 4 3 3 3 4 6 7 5 3 4 7 9 5 2 2 1 4 0 1 2 2 1 2 2 1 3 1 2 1 2 3 2 2 2 3 6 8 5 6 4 5 7 11 14 14 13 11 9 8 9 13 15 12 7 5 3
17 10 12 17 20 24 24 18 15 13 8 6 7 6 5 7 12 20 21 12 5 6 5 4 6 5 4 5 5 4 5 5 6 4 4 4 4 5 7 7 5 4 3 5 3 1 2 2 3 2 2 1 2 4 6 7 4 3 2 2 2 2 1 1 2 3 3 6 6 6 10 6 3 4 10 14 13 13 12 9 7 11 16 16 12 10 7 3
17 8 9 12 15 21 24 16 11 9 5 5 6 5 7 7 7 15 26 25 15 10 9 6 6 7 5 5 5 4 4 4 6 6 4 5 5 4 8 11 11 9 4 4 2 3 2 3 4 2 1 3 6 6 7 8 7 6 6 5 6 5 2 3 5 2 3 6 4 5 13 9 2 3 6 10 9 10 12 11 8 14 20 17 13 11 6 2
19 9 9 14 16 19 21 12 7 7 5 7 8 9 9 8 7 11 18 22 18 13 10 7 6 7 6 6 5 5 5 4 6 6 5 7 8 6 8 15 18 17 9 2 3 4 3 2 3 5 6 6 6 3 2 4 4 3 4 5 6 5 5 6 7 3 3 4 2 4 13 9 2 5 5 7 9 11 15 14 12 16 20 16 12 9 4 2
23 14 8 14 19 20 18 6 4 6 5 7 11 13 12 8 7 9 11 12 11 9 8 6 5 8 8 5 5 5 5 5 6 9 6 5 8 7 8 17 20 15 8 2 2 3 2 2 3 6 6 4 2 2 4 3 3 1 4 5 6 7 8 8 6 2 2 5 3 4 11 8 1 2 5 7 10 14 17 17 16 18 18 14 11 7 3 3
23 18 12 14 18 23 17 5 5 9 7 6 8 11 14 14 11 10 8 9 9 6 6 6 6 10 9 5 7 7 6 6 7 9 8 5 5 5 8 19 20 12 6 5 5 7 5 2 3 2 6 6 3 2 3 1 1 3 5 5 8 10 7 3 3 1 4 11 10 7 12 9 2 0 3 7 9 9 12 16 18 18 16 13 10 6 2 5
14 13 16 18 22 25 19 8 5 7 8 9 9 11 13 13 15 19 14 12 12 9 6 7 9 10 6 4 6 7 8 10 8 4 5 5 4 2 6 16 17 11 7 7 10 12 7 2 4 4 6 9 9 7 4 2 3 3 3 6 10 11 10 5 3 4 8 13 11 10 14 11 3 2 2 5 7 7 8 12 15 15 15 14 10 6 1 6
11 8 10 14 21 27 25 18 9 3 5 9 7 11 16 11 10 20 21 16 15 14 10 8 8 9 5 5 6 8 11 13 10 4 3 4 4 1 3 8 10 8 7 8 10 10 3 2 6 9 10 12 14 11 1 4 3 5 5 9 11 11 14 11 6 8 8 5 10 15 15 15 13 7 6 6 7 7 6 9 14 16 16 14 10 4 2 9
11 6 9 11 13 20 22 21 16 7 6 11 7 5 13 14 9 13 18 16 16 19 13 7 8 9 6 8 8 11 15 12 9 8 6 5 3 2 1 4 4 7 7 8 9 7 3 4 10 12 16 19 20 14 2 4 7 12 10 10 11 11 15 15 14 15 7 1 14 21 12 14 20 12 10 11 10 8 6 10 15 17 15 12 7 2 5 11
16 9 17 20 11 7 13 19 20 16 14 13 8 5 10 14 11 10 13 13 16 20 13 7 12 14 12 13 10 11 14 8 6 11 10 8 5 0 0 2 4 8 7 6 7 5 3 7 11 11 16 21 19 13 7 6 10 14 15 12 11 14 18 20 21 21 12 9 20 22 12 17 20 12 11 12 9 9 9 10 13 13 12 10 4 2 7 12
24 10 14 24 16 9 17 25 25 21 19 13 9 12 15 14 12 10 8 6 10 17 16 12 16 17 16 17 14 14 14 8 7 13 10 9 10 5 2 3 4 8 8 5 4 4 3 6 9 8 12 18 17 10 9 10 12 18 20 15 14 19 21 20 21 20 18 20 25 24 22 26 22 12 13 13 10 11 10 11 13 12 11 8 2 3 7 10
33 21 14 19 18 14 18 22 19 15 17 15 13 15 13 13 16 12 8 11 11 11 16 20 19 17 19 22 20 19 18 12 12 15 10 9 9 5 4 4 4 6 6 4 2 4 5 3 2 3 7 15 14 8 8 10 12 20 22 16 16 21 21 20 20 19 18 21 25 24 23 26 21 12 12 15 14 10 9 12 14 14 12 7 1 4 7 8
44 37 26 15 9 11 13 12 13 10 10 13 15 14 11 15 21 14 10 22 24 12 13 23 25 18 17 20 20 21 22 18 18 19 15 14 12 10 9 8 10 8 5 6 4 4 5 3 2 5 4 11 7 3 6 6 8 19 26 20 18 20 20 18 18 18 18 19 22 20 17 19 17 7 5 8 10 9 9 13 15 13 11 5 1 4 7 6
44 37 34 21 8 10 12 9 10 10 11 14 16 15 16 19 20 15 11 20 27 24 22 25 23 14 10 14 22 29 31 27 24 23 19 16 14 13 12 12 16 14 8 7 5 3 5 4 2 4 4 6 1 4 2 2 5 15 19 16 20 23 22 19 17 20 20 16 15 15 16 17 11 2 5 6 7 7 9 14 17 15 10 4 2 3 4 4
Wind_Direction
9 11 13 15 18 16 14 14 14 13 14 16 16 14 13 14 15 15 16 18 21 22 23 17 10 17 34 58 74 67 67 65 59 60 62 59 53 45 39 32 30 28 25 22 9 10 34 50 19 1 350 323 290 296 334 355 6 17 99 73 313 204 152 217 141 123 125 119 103 87 101 122 132 116 107 91 90 94 90 89 94 95 94 96 98 96 79 55
6 8 8 11 15 16 13 12 13 12 12 14 15 13 11 13 13 12 12 13 16 19 22 18 9 8 17 61 87 77 69 65 60 57 58 57 52 44 34 28 25 23 25 28 28 30 27 23 20 15 351 325 263 247 311 351 13 28 89 64 247 211 191 109 88 84 100 116 118 70 94 124 136 126 123 106 101 103 94 92 98 96 96 101 102 92 81 65
3 4 4 7 10 12 11 10 12 10 10 12 14 12 11 11 11 9 8 9 10 14 19 19 12 4 3 27 108 86 60 56 53 46 51 58 51 42 32 28 25 25 24 22 29 29 18 13 8 352 337 326 255 230 266 356 8 33 66 22 246 235 291 57 81 94 95 105 87 38 96 112 88 95 125 118 101 95 103 119 109 102 103 101 98 91 80 67
358 1 360 1 5 8 8 7 9 8 8 9 11 12 10 9 8 6 5 6 6 9 14 18 18 9 359 349 149 121 9 29 34 29 41 56 48 39 33 31 29 30 23 18 20 14 14 10 354 337 320 320 275 233 228 111 350 346 98 202 244 308 11 37 75 86 76 88 68 30 101 95 71 93 137 129 93 59 111 129 125 117 115 108 103 93 81 70
352 356 356 358 0 2 3 4 4 4 5 5 8 9 8 8 6 4 4 3 3 6 10 14 18 16 4 358 156 204 327 341 2 16 40 54 49 36 33 33 32 31 24 27 23 12 19 11 355 350 328 317 313 305 298 156 16 335 226 204 263 21 23 22 64 64 55 79 61 62 88 94 100 86 131 139 108 130 128 123 124 121 119 114 109 96 80 71
346 348 352 353 355 358 358 359 358 358 0 1 2 4 5 5 3 2 2 1 0 2 7 10 14 17 12 27 85 9 0 71 336 18 52 57 50 35 32 30 28 27 24 34 32 23 22 14 9 7 351 328 335 35 169 196 17 327 281 255 6 15 339 4 49 47 46 72 51 54 5 106 108 79 99 118 115 133 131 126 123 119 120 117 112 98 80 70
340 343 346 348 350 353 354 354 353 351 354 355 355 356 358 358 358 359 358 359 357 356 2 7 8 11 6 29 56 26 25 81 82 49 62 57 44 27 26 19 20 24 26 37 37 32 20 13 14 0 351 355 2 14 188 287 195 172 275 287 272 311 324 338 19 31 49 69 11 342 269 152 121 102 101 111 122 132 130 129 125 121 124 123 115 98 82 71
336 337 339 342 344 346 350 351 351 348 346 349 349 347 349 350 351 353 353 355 354 351 355 2 5 2 338 344 16 348 322 10 31 68 54 40 29 17 11 3 13 19 26 34 32 31 21 15 10 356 9 73 356 347 353 347 265 169 255 288 281 290 302 307 336 6 60 76 4 357 261 180 144 133 120 124 134 138 137 136 131 128 127 124 118 102 83 70
331 334 336 336 338 340 343 346 348 349 345 345 346 342 341 343 344 347 348 348 349 347 348 355 0 356 320 293 322 322 276 309 341 53 47 25 11 9 3 357 9 15 25 29 25 26 23 21 9 355 356 316 336 331 5 25 300 191 267 308 321 293 293 286 271 291 207 133 19 27 36 126 144 136 118 142 145 144 144 141 139 138 130 121 115 98 77 66
326 328 331 332 334 334 335 339 343 347 347 345 346 343 339 339 341 341 343 343 344 343 344 350 354 358 332 282 300 313 278 299 308 24 50 25 9 7 1 359 8 13 20 20 16 21 22 16 359 350 323 311 332 307 311 30 265 305 335 320 311 288 285 275 250 232 196 208 21 49 45 138 151 142 134 163 153 151 148 141 146 144 136 129 114 92 76 66
321 323 325 327 329 330 329 332 335 339 343 343 345 345 340 338 340 339 339 340 338 338 342 346 347 353 331 293 285 271 286 296 265 191 66 25 15 9 2 1 6 10 12 9 5 8 15 9 349 338 305 309 320 304 290 253 284 315 341 326 305 285 276 266 243 222 198 217 12 67 120 169 171 167 171 168 160 160 153 142 148 144 140 136 117 94 79 69
315 317 320 322 324 326 326 327 328 331 333 336 338 341 339 337 339 339 339 339 334 332 339 344 344 330 260 292 284 270 275 264 234 206 80 8 9 12 7 1 359 3 3 0 355 350 0 1 351 328 269 284 310 323 306 300 310 310 349 332 310 323 289 257 237 223 204 209 323 17 13 196 208 199 164 164 160 162 155 146 147 143 143 136 118 101 77 64
309 313 314 317 319 321 324 324 324 325 327 328 330 334 336 335 336 339 338 336 331 330 338 343 342 279 259 282 270 266 258 238 228 237 305 331 356 12 9 358 354 358 355 353 347 337 344 346 343 311 267 269 286 307 299 300 310 297 273 144 330 11 325 249 221 215 200 211 274 26 341 255 224 161 159 162 162 161 152 148 149 145 143 133 118 109 81 62
305 307 310 312 314 317 320 321 322 322 323 324 325 329 331 331 333 335 336 333 325 330 337 339 347 231 262 271 254 254 247 235 234 256 292 316 340 6 8 1 2 360 352 349 343 329 330 334 331 307 269 265 265 289 311 314 332 175 206 91 84 87 289 260 205 181 181 228 221 107 265 262 208 158 162 166 168 163 153 150 153 151 144 134 125 118 95 64
301 303 307 309 311 314 316 318 320 319 321 321 322 326 329 329 330 331 331 326 319 331 336 325 291 271 279 263 247 248 244 238 245 266 281 307 329 355 1 0 1 359 351 343 344 345 331 324 320 305 273 276 278 304 336 338 350 48 127 317 339 160 269 289 222 187 183 229 199 150 271 259 183 170 168 167 171 165 154 153 157 154 146 140 134 124 98 64
297 300 303 306 309 311 313 316 317 318 319 320 321 324 328 329 328 326 324 316 318 333 331 303 249 294 299 267 243 241 246 248 258 275 282 301 318 340 352 358 358 353 351 344 349 356 336 321 314 306 285 281 114 81 31 3 343 357 118 265 292 236 272 299 270 220 188 189 202 191 238 260 192 178 173 170 171 164 156 158 159 156 149 144 137 124 100 66
295 298 300 304 307 309 312 315 317 318 318 320 322 324 329 331 326 323 317 296 328 335 323 264 271 299 288 258 244 243 244 252 272 279 285 301 309 332 348 359 359 349 351 356 338 349 342 323 309 307 310 344 81 87 45 2 324 328 8 287 271 281 277 259 300 267 190 179 229 216 232 258 213 173 178 176 172 164 158 161 160 155 152 146 138 122 104 76
293 296 298 301 304 308 311 314 317 318 319 323 325 327 331 332 327 324 302 275 330 333 307 257 321 318 278 227 217 242 252 260 278 282 285 293 309 336 350 358 357 351 359 12 336 348 346 319 120 15 3 7 29 75 57 282 233 245 269 283 284 292 284 259 274 250 193 202 232 233 248 259 217 172 181 181 177 171 163 163 160 157 155 150 144 129 106 80
290 293 295 298 302 306 309 314 318 319 321 324 326 331 335 334 334 329 241 315 329 331 261 293 307 290 255 254 249 256 265 267 273 276 275 288 323 335 349 359 357 8 18 8 333 336 343 351 28 11 338 338 42 105 174 221 202 213 226 217 245 272 277 264 259 234 185 191 239 234 242 250 196 182 190 183 179 175 165 162 161 160 158 154 148 138 117 87
286 289 292 295 298 303 308 312 318 321 323 328 333 341 347 346 347 323 311 329 328 282 290 288 285 270 261 268 268 264 267 258 255 252 253 290 332 335 356 0 1 37 27 334 311 314 69 47 350 262 236 209 211 204 205 219 212 228 246 243 246 257 273 269 270 258 167 168 251 232 233 252 207 195 202 184 174 171 165 164 165 163 161 158 152 143 130 122
282 286 289 292 295 299 304 310 317 322 326 333 341 352 4 4 5 312 325 332 313 302 294 282 282 272 263 265 260 259 254 235 234 223 242 305 337 337 353 7 24 31 329 306 290 302 66 15 273 222 206 198 221 236 223 236 252 257 249 268 274 255 260 270 264 239 151 176 267 250 245 257 231 213 203 179 172 179 176 172 170 165 162 162 160 153 138 152
279 282 286 289 290 295 300 307 314 320 327 333 343 358 9 5 357 335 333 313 302 307 284 271 278 260 264 266 246 238 235 232 224 206 233 309 347 336 337 40 57 338 315 337 3 357 10 296 254 219 196 207 256 238 212 228 241 256 256 279 282 262 264 286 284 186 108 291 270 280 269 257 245 237 204 183 185 189 184 179 173 167 164 166 166 164 153 167
276 279 283 284 286 292 296 304 310 316 325 332 345 358 358 353 348 344 338 300 300 305 270 264 260 238 254 245 216 216 233 242 209 203 213 282 359 11 51 67 40 315 334 30 74 12 319 266 235 197 175 184 295 259 186 229 258 247 244 257 264 269 271 282 305 330 318 268 242 274 275 258 239 242 209 191 189 180 183 181 173 171 170 170 172 170 166 171
271 273 277 279 282 287 291 299 305 313 322 334 346 347 345 343 345 344 335 295 286 298 275 219 204 215 221 195 196 208 221 224 219 215 220 294 11 61 96 65 27 12 252 108 128 182 268 260 202 148 147 156 236 309 166 199 272 258 221 221 242 253 233 237 286 331 321 304 277 287 289 271 216 209 202 187 176 165 173 172 167 174 176 174 176 172 166 166
264 266 270 274 277 281 286 293 297 305 316 328 331 329 339 336 339 348 340 315 288 287 228 188 214 212 205 205 204 195 219 242 235 231 238 288 99 126 168 122 67 337 226 234 78 246 266 262 148 127 91 111 173 267 218 185 243 288 239 218 216 205 236 265 332 360 340 309 294 316 296 285 213 187 192 167 159 169 171 166 168 175 176 177 176 168 153 138
258 260 264 267 270 274 280 284 285 292 302 312 312 318 332 328 337 348 352 37 310 264 170 180 211 193 196 208 207 191 323 262 225 236 238 189 133 58 356 157 137 252 206 54 346 279 258 2 86 118 126 104 225 257 237 180 168 285 252 186 161 142 271 290 331 6 285 265 280 95 221 278 274 173 188 175 176 188 182 176 179 179 181 183 176 166 155 136
254 256 259 261 263 266 268 270 272 279 287 293 295 304 316 323 338 346 10 29 296 222 144 178 188 180 190 195 190 171 123 249 218 244 204 164 37 14 336 224 121 253 174 80 339 274 190 64 48 90 116 176 257 263 231 159 143 251 241 136 118 123 273 267 246 240 243 275 294 243 203 268 279 228 189 173 181 197 196 196 190 187 190 185 174 166 158 148
250 251 253 255 257 258 257 259 264 272 268 267 278 283 301 320 330 351 55 20 284 157 133 189 167 177 194 195 200 190 212 254 141 194 173 161 347 23 70 216 170 216 202 111 254 270 189 172 212 152 118 230 232 233 193 143 150 247 215 162 203 230 242 248 233 249 272 16 286 239 172 246 273 245 167 166 186 209 207 200 194 191 189 178 169 167 154 144
244 246 248 249 252 251 250 251 254 259 254 249 262 263 285 311 324 31 79 274 264 121 135 181 163 194 190 179 216 219 233 233 199 195 179 190 324 21 346 243 166 213 253 170 212 261 256 191 189 154 160 233 225 217 176 149 204 242 200 224 277 249 244 232 225 259 16 5 261 231 165 218 266 217 144 165 206 219 211 196 192 192 184 172 164 162 155 155
242 242 244 243 244 242 242 246 246 247 244 242 245 246 278 303 19 64 52 254 252 116 116 151 185 182 161 152 262 222 201 210 205 182 184 219 296 351 318 274 151 153 292 283 236 264 277 167 166 160 194 204 178 189 180 167 202 177 47 342 327 292 271 148 198 38 55 263 258 220 182 202 270 240 161 178 218 211 194 177 184 191 179 168 163 160 161 162
239 238 239 239 236 235 234 235 237 238 234 236 239 226 247 319 76 100 211 246 292 250 110 148 229 129 135 143 231 200 187 241 204 165 187 250 321 17 38 317 359 57 347 332 301 304 329 220 233 210 191 144 111 138 293 1 61 69 62 28 344 310 354 39 6 54 111 256 263 227 198 198 239 245 187 214 238 188 176 175 180 185 170 162 161 161 165 162
237 235 234 234 232 230 229 223 223 227 227 224 221 205 170 29 56 185 226 315 338 219 154 176 223 145 131 91 260 217 251 296 196 158 171 138 132 256 174 203 198 12 322 288 310 322 306 244 254 71 174 155 121 59 329 356 43 81 83 64 6 319 349 355 311 144 217 249 249 179 166 214 240 249 208 222 238 192 178 177 174 168 160 160 161 160 164 159
234 232 229 230 229 226 223 219 218 219 219 205 194 166 102 106 224 219 226 274 254 203 142 130 135 119 120 91 282 226 143 252 218 156 170 111 5 280 257 213 162 152 267 241 346 319 300 297 292 56 268 185 155 149 237 269 121 140 133 123 159 308 325 298 276 267 273 268 251 133 51 276 263 277 232 214 214 178 164 164 164 158 154 160 162 161 166 159
232 229 226 225 225 223 218 217 218 216 213 197 176 123 109 180 233 230 226 236 241 76 79 104 94 71 98 153 240 202 116 274 216 119 37 67 52 274 278 259 174 151 207 334 332 218 242 305 242 190 225 171 173 189 174 149 150 188 166 139 165 169 229 272 271 268 289 290 257 235 296 243 223 299 283 185 131 128 139 146 150 151 154 160 160 162 171 173
230 229 228 222 220 221 216 215 215 209 205 195 164 126 168 205 232 229 227 230 227 86 14 60 90 81 281 269 268 212 178 267 173 96 153 170 177 205 207 228 198 152 129 138 271 193 201 258 241 230 133 152 183 216 147 114 116 234 131 112 193 186 192 255 231 200 296 307 273 215 224 228 192 334 350 103 114 119 132 140 145 152 158 160 161 166 174 192
229 232 234 225 217 217 215 214 212 208 203 187 161 197 206 207 197 196 212 196 168 146 111 10 95 132 260 271 281 255 157 224 33 78 242 212 203 210 202 213 192 170 161 165 226 222 244 268 260 30 337 172 182 212 157 128 156 198 132 178 228 185 153 249 271 114 55 299 275 215 246 273 3 327 349 117 125 131 142 148 151 158 161 161 166 171 181 273
228 235 241 230 217 212 213 213 209 204 197 181 182 216 210 208 203 203 197 138 143 141 127 153 208 189 217 235 243 230 155 250 220 124 242 242 230 204 199 228 192 183 189 176 207 225 223 273 240 148 229 240 202 334 316 346 128 147 187 226 228 123 103 133 264 331 64 262 268 194 243 262 198 219 230 159 164 174 180 171 159 163 164 166 170 174 199 328
228 242 248 237 220 209 208 209 206 198 189 181 220 226 208 210 214 213 198 156 140 114 132 203 220 186 194 210 234 208 167 192 197 171 208 239 244 188 165 197 199 195 197 171 179 255 128 279 269 158 199 252 49 31 319 324 106 146 202 255 108 169 256 148 153 257 230 265 270 228 248 248 202 195 198 190 195 192 190 181 172 174 170 168 171 175 219 319
224 241 255 243 224 211 208 206 200 191 184 189 220 222 211 216 221 220 215 199 175 160 171 215 219 205 193 191 194 187 181 186 176 184 210 214 228 192 171 181 178 188 183 159 172 234 120 239 277 291 240 275 37 77 209 235 58 91 40 327 35 198 223 181 160 186 206 265 273 288 295 260 200 189 183 193 200 188 183 185 183 185 177 172 173 180 197 240
214 228 257 244 224 216 213 209 200 190 193 211 209 216 223 222 226 224 223 221 183 178 203 205 200 216 221 202 197 189 190 190 175 185 211 202 217 218 196 179 153 153 143 126 152 188 108 202 250 315 334 252 192 199 192 191 176 140 165 235 224 208 204 257 236 153 192 253 263 288 285 258 189 183 179 188 195 183 177 181 184 183 177 175 178 182 190 219
205 223 250 224 215 216 207 200 200 194 206 225 209 221 230 232 233 223 226 229 223 215 213 190 184 199 202 213 222 193 180 197 189 194 224 216 214 235 210 184 160 149 113 74 169 196 156 195 224 257 264 224 227 224 198 189 183 177 188 194 200 203 184 267 260 187 195 238 218 250 270 263 195 174 174 174 179 175 174 176 180 179 175 175 180 179 180 246
195 216 239 204 204 205 190 187 205 198 212 222 215 226 227 232 240 227 226 228 227 226 220 206 194 197 201 209 205 179 181 210 200 196 229 223 206 214 208 188 169 155 145 132 210 201 146 142 227 251 245 234 240 244 178 173 165 180 211 193 184 190 180 215 244 224 202 241 193 235 265 273 163 147 155 159 163 168 177 179 175 177 177 174 175 172 173 292
198 204 208 198 201 191 179 192 219 198 227 228 225 236 233 234 243 228 220 218 217 216 215 214 191 203 223 206 183 193 196 212 215 203 219 227 211 216 196 180 169 151 141 160 207 173 128 130 227 265 284 264 250 20 37 58 85 222 239 188 182 211 208 216 236 201 196 235 204 233 259 266 257 148 147 152 163 168 181 186 177 174 174 172 171 174 199 303
207 210 203 201 196 185 184 207 202 204 230 223 224 239 236 238 239 223 207 202 205 193 198 219 202 208 226 189 181 210 197 210 240 219 209 210 206 215 187 176 174 164 167 189 174 165 173 186 182 266 309 293 282 352 352 343 157 224 233 188 204 223 216 248 280 145 248 243 222 232 257 252 230 136 142 144 159 173 185 187 177 170 170 171 175 179 221 324
206 216 215 210 196 190 201 218 191 205 217 210 227 234 229 237 232 222 219 213 207 188 187 223 210 200 208 169 189 218 202 214 243 226 193 207 218 218 180 183 186 188 190 182 162 161 175 202 170 199 273 273 274 286 280 220 186 215 223 200 211 212 197 211 238 200 237 247 227 226 249 254 225 150 207 182 178 190 185 172 169 172 175 177 179 182 251 341
191 205 208 197 194 201 217 227 221 219 198 196 227 231 221 232 230 217 217 218 214 202 201 218 201 190 195 177 197 229 224 222 230 227 171 195 229 271 181 193 201 201 190 172 161 154 142 265 206 212 232 243 258 267 223 122 202 242 228 208 208 206 203 210 219 221 227 254 253 240 240 258 259 229 217 215 194 201 197 167 168 175 178 177 175 181 322 346
194 208 193 168 182 206 220 226 225 226 206 198 207 223 212 218 227 215 210 211 207 205 213 222 191 188 194 185 198 233 234 224 220 232 228 201 221 312 214 202 204 196 176 165 172 151 101 251 225 221 232 242 255 262 205 144 241 257 254 229 214 207 211 215 220 229 218 127 260 253 233 247 256 242 223 227 219 222 209 176 179 181 179 179 177 209 327 343
204 217 203 187 179 195 207 212 211 217 226 217 218 251 225 210 209 206 205 208 205 202 209 227 211 203 195 190 201 233 234 218 210 229 231 221 221 335 334 240 206 192 169 159 186 152 126 246 233 222 239 249 257 265 261 247 255 260 257 243 227 219 218 222 228 233 226 219 251 262 258 252 254 245 235 233 217 222 218 194 196 195 184 182 185 308 331 343
207 228 208 196 200 199 197 201 200 207 224 221 220 240 233 218 214 204 182 188 215 209 204 218 223 210 201 202 207 226 226 195 204 228 222 217 218 184 168 256 210 192 177 159 193 156 147 251 243 223 249 259 258 257 259 256 260 263 256 240 233 234 229 229 235 237 234 238 252 265 268 265 262 251 251 252 230 221 215 197 196 189 178 179 190 328 338 345
207 212 193 189 211 213 196 195 193 203 220 216 223 234 226 220 222 212 179 185 209 210 201 218 228 208 204 213 212 224 227 198 208 228 200 191 220 193 190 219 164 173 189 159 176 199 192 239 231 171 252 268 261 243 237 243 251 261 260 241 230 242 243 238 239 238 237 243 251 257 262 267 267 257 258 259 244 221 193 184 187 181 172 171 191 328 340 345
212 212 200 183 210 210 188 185 186 199 218 211 221 227 217 223 221 208 205 214 217 209 184 210 227 216 209 220 219 228 231 211 216 229 202 190 208 198 200 194 150 152 190 173 171 205 204 225 69 103 237 265 262 209 229 254 267 267 265 248 228 236 241 236 234 232 229 235 248 255 255 260 266 260 231 231 216 195 184 183 178 169 167 174 250 324 340 345
212 212 208 201 212 200 192 193 181 194 222 215 211 215 217 224 216 198 215 229 227 227 213 208 219 219 212 224 225 230 232 224 229 239 226 215 218 211 213 201 170 163 169 171 183 190 176 193 158 136 219 270 335 111 133 39 305 272 263 235 217 225 235 239 243 239 228 224 239 246 243 252 267 232 174 195 184 179 189 182 172 166 167 180 292 320 336 336